Regional Weather Roundup
Issued by NWS

Home | Current Version | Previous Version | Text Only | Print | Product List | Glossary Off
Versions: 1 2 3 4 5 6 7 8 9 10 11 12 13 14 15 16 17 18 19 20 21 22 23 24 25 26 27 28 29 30 31 32 33 34 35 36 37 38 39 40 41 42 43 44 45 46 47 48 49 50

000
ASUS43 KLMK 201802
RWRKY
KENTUCKY REGIONAL WEATHER ROUNDUP
NATIONAL WEATHER SERVICE LOUISVILLE KY
100 PM EST MON NOV 20 2017

NOTE "FAIR" INDICATES FEW OR NO CLOUDS BELOW 12,000 FEET
WITH NO SIGNIFICANT WEATHER AND/OR OBSTRUCTIONS TO VISIBILITY.

KYZ001>023-026-027-061>063-070>075-201900-
WESTERN AND SOUTH CENTRAL KENTUCKY

CITY           SKY/WX    TMP DP  RH WIND       PRES   REMARKS
PADUCAH        SUNNY     49  25  39 VRB7      30.16F
HENDERSON      SUNNY     48  28  46 S10       30.16F
OWENSBORO      SUNNY     48  27  44 S12       30.17F
HOPKINSVILLE   SUNNY     47  22  37 SE6       30.18F
BOWLING GREEN  SUNNY     49  25  39 S6        30.21F
GLASGOW        NOT AVBL
$$

KYZ024-025-028>034-038-045-046-053-201900-
NORTH CENTRAL KENTUCKY

CITY           SKY/WX    TMP DP  RH WIND       PRES   REMARKS
LOUISVILLE/SDF SUNNY     47  24  40 SE9       30.19F
LOUISVILLE/LOU SUNNY     46  26  45 S12G17    30.20F
FORT KNOX      SUNNY     46  25  43 SE7       30.17F
$$

KYZ035>037-039>044-047>052-055>060-089>105-201900-
NORTHEAST KENTUCKY

CITY           SKY/WX    TMP DP  RH WIND       PRES   REMARKS
LEXINGTON      SUNNY     45  26  47 S14       30.20F
COVINGTON      MOSUNNY   44  25  47 S12       30.15F
FRANKFORT      SUNNY     45  23  42 S7        30.19F
$$

KYZ054-064>069-076>088-106>120-201900-
SOUTHEAST KENTUCKY

CITY           SKY/WX    TMP DP  RH WIND       PRES   REMARKS
JACKSON        SUNNY     44  25  47 VRB6      30.22F
LONDON         SUNNY     45  22  40 CALM      30.22F
SOMERSET       SUNNY     45  21  39 S5        30.24F
MIDDLESBORO    SUNNY     47  27  46 E3        30.24F
MONTICELLO     CLEAR     47  25  42 VRB6      30.23F
$$





USA.gov is the U.S. government's official web portal to all federal, state and local government web resources and services.